Location: Bacharowice
(49.9333°N, 19.5833°E)
Time: 11:30:34
(UTC+00:00)

USA 305 - Pass Details

Date: 22 September 2021
Orbit: 547 x 588 km, 54.0° (Epoch: 03 October)

Event Time Altitude Azimuth Distance (km) Brightness Sun altitude
Rises 20:28:12 0° 295° (WNW) 2,762 7.2 -33.3°
Reaches altitude 10° 20:30:27 10° 292° (WNW) 1,870 6.2 -33.5°
Enters shadow 20:31:21 16° 290° (WNW) 1,528 5.6 -33.6°
